Location: Asheville, NC
(35.6000°N, 82.5500°W)
Time: 23:16:06

FALCONSAT 3 - Pass Details

Date: 16 March 2018
Orbit: 461 x 466 km, 35.4° (Epoch: 20 March)

Event Time Altitude Azimuth Distance (km) Brightness Sun altitude
Exits shadow 06:28:04 32° 263° (W) 814 ? -15.3°
Maximum altitude 06:29:34 63° 193° (SSW) 516 ? -15.0°
Drops below altitude 10° 06:33:12 10° 112° (ESE) 1,603 ? -14.3°
Sets 06:35:23 0° 109° (ESE) 2,475 ? -13.8°
